Latest Weather Observations for Horsham AWS

IDV60801

Issued at 6:05 am EDT Friday 24 October 2014 (issued every 30 minutes, with the page automatically refreshed every 10 minutes)

About weather observations | Map of weather stations | Latest weather observations for VIC | Other Formats
Station Details ID: 079100 Name: HORSHAM AERODROME Lat: -36.67 Lon: 142.17 Height: 133.8 m
Data from the previous 72 hours. | See also: Recent months at Horsham AWS
Date/Time
EDT
Temp
°C
App
Temp
°C
Dew
Point
Rel
Hum
%
Delta-T
°C
Wind Press
QNH
hPa
Press
MSL
hPa
Rain
since 9 am
mm
Dir
 
Spd
km/h
Gust
km/h
Spd
kts
Gust
kts
24/06:00am 10.8 9.2 8.9 88 0.9 WSW 7 7 4 4 1012.1 1012.1 0.2
24/05:30am 11.0 9.2 9.4 90 0.8 WSW 9 9 5 5 1012.2 1012.2 0.2
24/05:00am 11.4 10.1 10.0 91 0.7 SW 7 9 4 5 1012.0 1012.0 0.2
24/04:30am 10.2 8.6 8.0 86 1.1 SW 6 7 3 4 1011.9 1011.9 0.2
24/04:00am 11.7 10.3 9.6 87 1.1 W 7 9 4 5 1012.2 1012.2 0.2
24/03:30am 12.2 11.0 9.4 83 1.4 W 6 9 3 5 1012.3 1012.3 0.2
24/03:00am 13.6 11.8 10.9 84 1.4 W 11 15 6 8 1012.4 1012.4 0.2
24/02:30am 13.6 12.2 10.8 83 1.5 WSW 9 11 5 6 1012.3 1012.3 0.2
24/02:00am 14.5 14.5 11.3 81 1.7 S 2 7 1 4 1012.6 1012.6 0.2
24/01:30am 14.7 14.9 11.7 82 1.6 ESE 2 7 1 4 1012.7 1012.7 0.2
24/01:00am 14.8 12.5 11.8 82 1.6 ESE 15 17 8 9 1012.8 1012.8 0.2
24/12:30am 14.6 12.5 11.2 80 1.8 SE 13 15 7 8 1013.2 1013.2 0.2
24/12:00am 15.1 12.6 11.1 77 2.1 ESE 15 17 8 9 1013.3 1013.3 0.2
 
Date/Time
EDT
Temp
°C
App
Temp
°C
Dew
Point
Rel
Hum
%
Delta-T
°C
Wind Press
QNH
hPa
Press
MSL
hPa
Rain
since 9 am
mm
Dir
 
Spd
km/h
Gust
km/h
Spd
kts
Gust
kts
23/11:30pm 16.3 13.9 11.5 73 2.6 ESE 15 17 8 9 1013.7 1013.6 0.2
23/11:00pm 17.2 14.9 11.9 71 2.9 ESE 15 19 8 10 1013.8 1013.7 0.2
23/10:30pm 16.5 14.4 11.0 70 3.0 ESE 13 15 7 8 1013.8 1013.7 0.2
23/10:00pm 17.6 14.8 11.4 67 3.4 SE 17 19 9 10 1013.6 1013.5 0.2
23/09:30pm 18.0 15.8 10.9 63 3.9 SE 13 15 7 8 1013.4 1013.4 0.2
23/09:00pm 20.5 17.9 12.0 58 4.8 SE 17 20 9 11 1012.8 1012.8 0.2
23/08:30pm 20.2 17.9 10.3 53 5.4 S 13 13 7 7 1012.6 1012.6 0.2
23/08:00pm 23.3 22.0 11.4 47 6.7 SSE 9 15 5 8 1012.6 1012.6 0.2
23/07:30pm 25.7 23.2 11.1 40 8.3 ESE 15 19 8 10 1012.2 1012.2 0.2
23/07:00pm 27.8 25.5 10.5 34 9.8 SE 13 17 7 9 1012.1 1012.1 0.2
23/06:30pm 28.9 26.9 10.1 31 10.6 SE 11 19 6 10 1012.0 1012.0 0.2
23/06:00pm 29.4 26.8 9.5 29 11.2 SE 13 20 7 11 1012.3 1012.3 0.2
23/05:30pm 30.2 27.5 9.1 27 11.8 ESE 13 20 7 11 1012.2 1012.2 0.2
23/05:00pm 29.6 27.0 10.7 31 10.8 ESE 15 24 8 13 1012.5 1012.5 0.2
23/04:30pm 29.2 25.8 9.3 29 11.1 SE 17 22 9 12 1012.7 1012.7 0.2
23/04:00pm 29.7 26.2 10.8 31 10.9 ESE 20 32 11 17 1012.7 1012.7 0.2
23/03:30pm 28.8 25.4 10.5 32 10.4 ESE 19 30 10 16 1013.1 1013.1 0.2
23/03:00pm 28.3 24.4 10.9 34 10.0 ESE 22 30 12 16 1013.4 1013.4 0.2
23/02:30pm 28.1 24.9 11.2 35 9.7 ESE 19 28 10 15 1014.1 1014.0 0.2
23/02:00pm 27.0 22.8 11.1 37 9.1 ESE 24 32 13 17 1014.4 1014.3 0.2
23/01:30pm 26.9 22.8 11.4 38 8.9 ESE 24 35 13 19 1014.8 1014.7 0.2
23/01:00pm 26.8 23.2 10.5 36 9.2 ESE 20 28 11 15 1015.1 1015.0 0.2
23/12:30pm 25.8 23.3 11.2 40 8.3 SE 15 22 8 12 1015.6 1015.5 0.2
23/12:00pm 24.9 22.7 10.7 40 8.0 SSE 13 20 7 11 1015.9 1015.9 0.2
23/11:30am 23.0 20.4 10.8 46 6.8 SSE 15 22 8 12 1016.6 1016.6 0.2
23/11:00am 21.5 19.0 10.9 51 5.9 SE 15 20 8 11 1016.8 1016.8 0.0
23/10:30am 20.2 17.7 11.1 56 5.0 SSE 15 22 8 12 1017.0 1017.0 0.0
23/10:00am 18.5 15.9 10.8 61 4.2 SSE 15 20 8 11 1017.1 1017.1 0.0
23/09:30am 16.9 14.2 10.5 66 3.4 SSE 15 20 8 11 1017.2 1017.2 0.0
23/09:00am 15.9 14.1 10.7 71 2.8 SE 11 15 6 8 1017.5 1017.5 0.6
23/08:30am 14.4 12.1 10.6 78 2.0 SSE 13 17 7 9 1017.4 1017.4 0.6
23/08:00am 12.7 11.4 11.4 92 0.7 S 9 11 5 6 1017.3 1017.3 0.6
23/07:30am 10.7 9.0 9.9 95 0.4 S 9 11 5 6 1017.2 1017.2 0.6
23/07:00am 9.0 6.1 8.2 95 0.4 S 13 15 7 8 1017.2 1017.2 0.6
23/06:30am 9.2 6.4 8.4 95 0.4 SSE 13 15 7 8 1017.0 1017.0 0.6
23/06:00am 8.1 5.0 7.2 94 0.4 SE 13 17 7 9 1016.9 1016.9 0.6
23/05:30am 9.5 6.7 8.7 95 0.4 S 13 15 7 8 1016.8 1016.8 0.6
23/05:00am 9.3 6.5 8.4 94 0.4 S 13 13 7 7 1016.6 1016.6 0.6
23/04:30am 9.6 6.8 8.7 94 0.4 S 13 17 7 9 1016.7 1016.7 0.6
23/04:00am 10.1 7.4 9.0 93 0.5 S 13 15 7 8 1016.8 1016.8 0.6
23/03:30am 10.4 7.8 9.2 92 0.6 S 13 15 7 8 1017.0 1017.0 0.6
23/03:00am 11.3 8.9 9.9 91 0.7 S 13 17 7 9 1017.2 1017.2 0.6
23/02:30am 12.1 9.1 10.5 90 0.8 S 17 22 9 12 1017.2 1017.2 0.6
23/02:00am 12.3 9.3 10.5 89 0.9 S 17 19 9 10 1017.3 1017.3 0.6
23/01:30am 12.9 9.6 10.8 87 1.1 SSW 19 22 10 12 1017.5 1017.5 0.6
23/01:00am 13.3 10.3 10.8 85 1.3 S 17 20 9 11 1017.6 1017.6 0.6
23/12:30am 14.2 10.8 11.2 82 1.6 S 20 26 11 14 1017.6 1017.6 0.6
23/12:00am 14.9 11.8 11.7 81 1.7 SSW 19 22 10 12 1017.3 1017.3 0.6
 
Date/Time
EDT
Temp
°C
App
Temp
°C
Dew
Point
Rel
Hum
%
Delta-T
°C
Wind Press
QNH
hPa
Press
MSL
hPa
Rain
since 9 am
mm
Dir
 
Spd
km/h
Gust
km/h
Spd
kts
Gust
kts
22/11:30pm 15.7 12.7 12.1 79 2.0 SSW 19 24 10 13 1017.2 1017.2 0.6
22/11:00pm 16.8 13.7 12.1 74 2.6 SSW 20 26 11 14 1017.3 1017.3 0.6
22/10:30pm 17.8 15.4 12.5 71 3.0 S 17 19 9 10 1017.2 1017.2 0.6
22/10:00pm 19.8 17.3 13.5 67 3.6 S 19 28 10 15 1017.2 1017.2 0.6
22/09:30pm 19.2 17.6 12.9 67 3.6 S 13 15 7 8 1016.8 1016.8 0.6
22/09:00pm 21.4 19.5 14.3 64 4.2 S 17 22 9 12 1016.6 1016.6 0.6
22/08:30pm 23.0 20.3 12.9 53 5.8 S 19 26 10 14 1016.2 1016.2 0.6
22/08:00pm 22.8 20.0 11.2 48 6.5 S 17 20 9 11 1015.8 1015.8 0.6
22/07:30pm 25.3 21.9 11.1 41 8.0 SE 20 28 11 15 1015.2 1015.1 0.6
22/07:00pm 26.1 21.0 10.7 38 8.7 ESE 28 39 15 21 1014.6 1014.5 0.6
22/06:30pm 27.5 21.2 9.8 33 9.9 ESE 33 43 18 23 1014.0 1013.9 0.6
22/06:00pm 28.5 22.5 10.2 32 10.4 ESE 32 43 17 23 1013.8 1013.7 0.6
22/05:30pm 28.7 24.7 11.7 35 9.9 ESE 24 32 13 17 1013.8 1013.7 0.6
22/05:00pm 26.6 21.9 11.9 40 8.5 SSE 28 41 15 22 1014.4 1014.3 0.6
22/04:39pm 22.6 17.5 14.7 61 4.7 SSW 35 43 19 23 1014.3 1014.2 0.6
22/04:30pm 24.9 17.5 13.1 48 6.9 WSW 44 67 24 36 1014.7 1014.6 0.4
22/04:25pm 27.6 21.0 9.9 33 9.9 WSW 35 54 19 29 1015.2 1015.1 0.0
22/04:21pm 29.8 25.1 9.3 28 11.5 NNW 24 46 13 25 1014.2 1014.1 0.0
22/04:18pm 31.4 18.5 4.2 18 14.2 NNW 61 96 33 52 1013.4 1013.4 0.0
22/04:16pm 32.1 24.9 3.1 16 14.9 NNW 30 54 16 29 1013.7 1013.6 0.0
22/04:00pm 33.2 30.6 3.1 15 15.6 W 6 7 3 4 1012.9 1012.9 0.0
22/03:30pm 34.4 30.2 5.8 17 15.5 NNE 17 26 9 14 1013.2 1013.2 0.0
22/03:00pm 34.8 30.3 7.0 18 15.4 NE 20 28 11 15 1014.3 1014.2 0.0
22/02:30pm 34.6 30.2 7.6 19 15.1 NNE 20 32 11 17 1014.9 1014.8 0.0
22/02:00pm 33.6 28.7 8.3 21 14.2 NE 24 35 13 19 1015.5 1015.4 0.0
22/01:30pm 32.5 27.4 9.3 24 13.2 NE 26 39 14 21 1016.0 1016.0 0.0
22/01:00pm 30.8 26.4 9.1 26 12.2 NNE 22 32 12 17 1016.6 1016.6 0.0
22/12:30pm 31.0 26.4 9.8 27 12.1 NNE 24 33 13 18 1017.0 1017.0 0.0
22/12:00pm 29.2 24.9 9.3 29 11.1 NNE 22 32 12 17 1017.5 1017.5 0.0
22/11:30am 27.9 24.2 10.1 33 10.0 ENE 20 28 11 15 1017.9 1017.9 0.0
22/11:00am 25.7 21.5 9.9 37 8.8 ENE 22 32 12 17 1018.3 1018.3 0.0
22/10:30am 24.8 20.0 10.3 40 8.1 E 26 35 14 19 1018.3 1018.3 0.0
22/10:00am 22.9 18.1 10.3 45 6.9 E 26 33 14 18 1018.4 1018.4 0.0
22/09:30am 21.3 16.1 10.2 49 6.1 ENE 28 33 15 18 1018.6 1018.6 0.0
22/09:00am 20.2 15.8 10.3 53 5.4 E 24 32 13 17 1018.6 1018.6 0.0
22/08:30am 19.7 14.5 10.1 54 5.2 ENE 28 33 15 18 1018.6 1018.6 0.0
22/08:00am 17.7 13.8 9.6 59 4.3 ENE 20 28 11 15 1018.6 1018.6 0.0
22/07:30am 17.3 13.5 9.2 59 4.2 E 19 26 10 14 1018.9 1018.9 0.0
22/07:00am 17.4 13.5 8.8 57 4.5 E 19 24 10 13 1018.6 1018.6 0.0
22/06:30am 17.2 13.3 8.6 57 4.4 E 19 24 10 13 1018.5 1018.5 0.0
22/06:00am 16.5 12.9 8.2 58 4.2 E 17 19 9 10 1018.5 1018.5 0.0
22/05:30am 16.8 13.9 8.0 56 4.5 ENE 13 17 7 9 1018.5 1018.5 0.0
22/05:00am 18.5 13.9 8.2 51 5.3 E 22 30 12 16 1018.1 1018.1 0.0
22/04:30am 19.3 13.7 8.6 50 5.6 E 28 37 15 20 1017.9 1017.9 0.0
22/04:00am 18.7 13.1 8.7 52 5.2 E 28 35 15 19 1018.3 1018.3 0.0
22/03:30am 17.3 12.8 8.4 56 4.6 E 22 32 12 17 1018.9 1018.9 0.0
22/03:00am 17.4 13.8 8.5 56 4.6 ENE 17 22 9 12 1019.2 1019.2 0.0
22/02:30am 16.8 13.2 8.2 57 4.4 E 17 20 9 11 1019.3 1019.3 0.0
22/02:00am 17.4 13.4 8.3 55 4.7 E 19 22 10 12 1019.6 1019.6 0.0
22/01:30am 17.5 13.8 8.1 54 4.8 E 17 19 9 10 1020.0 1020.0 0.0
22/01:00am 17.8 14.0 7.5 51 5.2 E 17 19 9 10 1020.3 1020.3 0.0
22/12:30am 18.5 14.3 7.3 48 5.7 E 19 24 10 13 1020.3 1020.3 0.0
22/12:00am 18.0 13.5 6.2 46 5.8 E 19 20 10 11 1020.6 1020.6 0.0
 
Date/Time
EDT
Temp
°C
App
Temp
°C
Dew
Point
Rel
Hum
%
Delta-T
°C
Wind Press
QNH
hPa
Press
MSL
hPa
Rain
since 9 am
mm
Dir
 
Spd
km/h
Gust
km/h
Spd
kts
Gust
kts
21/11:30pm 18.0 13.5 5.9 45 6.0 E 19 20 10 11 1020.7 1020.7 0.0
21/11:00pm 17.6 13.0 5.5 45 5.9 E 19 20 10 11 1020.9 1020.9 0.0
21/10:30pm 18.1 13.4 5.0 42 6.3 E 19 20 10 11 1021.0 1021.0 0.0
21/10:00pm 18.9 14.1 4.7 39 6.9 E 19 20 10 11 1021.0 1021.0 0.0
21/09:30pm 20.0 15.2 4.5 36 7.5 E 19 20 10 11 1020.9 1020.9 0.0
21/09:00pm 20.7 15.6 4.3 34 8.0 E 20 22 11 12 1020.6 1020.6 0.0
21/08:30pm 21.2 16.1 3.9 32 8.4 E 20 22 11 12 1020.6 1020.6 0.0
21/08:00pm 23.1 18.2 4.1 29 9.3 E 19 20 10 11 1020.5 1020.5 0.0
21/07:30pm 26.5 22.3 3.7 23 11.4 E 15 17 8 9 1020.5 1020.5 0.0
21/07:00pm 29.1 24.8 3.1 19 13.1 E 15 22 8 12 1020.3 1020.3 0.0
21/06:30pm 30.3 26.2 2.5 17 14.0 ENE 13 17 7 9 1020.2 1020.2 0.0
21/06:00pm 31.0 26.5 2.3 16 14.4 E 15 24 8 13 1020.2 1020.2 0.0
21/05:30pm 31.0 26.9 2.3 16 14.4 NNE 13 19 7 10 1020.2 1020.2 0.0
21/05:00pm 31.0 27.7 2.3 16 14.4 ENE 9 15 5 8 1020.4 1020.4 0.0
21/04:30pm 31.2 27.4 1.5 15 14.8 ENE 11 20 6 11 1020.7 1020.7 0.0
21/04:00pm 30.8 25.9 2.1 16 14.3 ENE 17 26 9 14 1021.1 1021.1 0.0
21/03:30pm 31.0 26.9 2.3 16 14.4 NNE 13 22 7 12 1021.6 1021.5 0.0
21/03:00pm 30.4 26.3 4.2 19 13.5 E 15 24 8 13 1022.0 1021.9 0.0
21/02:30pm 29.4 25.7 2.6 18 13.4 E 11 20 6 11 1022.5 1022.5 0.0
21/02:00pm 28.8 24.3 4.3 21 12.5 NNE 17 28 9 15 1023.0 1023.0 0.0
21/01:30pm 27.4 22.4 3.8 22 11.9 NNE 19 28 10 15 1023.5 1023.5 0.0
21/01:00pm 26.6 22.0 3.8 23 11.4 NNE 17 24 9 13 1023.9 1023.9 0.0
21/12:30pm 25.7 20.8 5.3 27 10.5 NE 20 33 11 18 1024.2 1024.2 0.0
21/12:00pm 24.1 19.4 7.7 35 8.7 E 22 30 12 16 1024.6 1024.6 0.0
21/11:30am 22.4 17.3 7.8 39 7.7 E 24 32 13 17 1024.8 1024.8 0.0
21/11:00am 21.1 16.5 8.0 43 6.8 ENE 22 30 12 16 1025.1 1025.1 0.0
21/10:30am 19.7 15.1 8.1 47 6.0 ENE 22 30 12 16 1025.3 1025.3 0.0
21/10:00am 17.9 12.8 7.6 51 5.2 ENE 24 32 13 17 1025.4 1025.4 0.0
21/09:30am 16.3 10.4 7.3 55 4.5 E 28 33 15 18 1025.3 1025.3 0.0
21/09:00am 15.1 8.7 6.9 58 4.0 E 30 37 16 20 1025.3 1025.3 0.0
21/08:30am 13.6 7.0 6.0 60 3.6 E 30 39 16 21 1025.1 1025.1 0.0
21/08:00am 11.6 6.9 5.9 68 2.7 E 20 26 11 14 1025.2 1025.2 0.0
21/07:30am 9.0 4.9 6.1 82 1.3 E 17 19 9 10 1024.7 1024.7 0.0
21/07:00am 7.3 3.4 5.4 88 0.8 E 15 17 8 9 1024.2 1024.2 0.0
21/06:30am 7.5 3.3 5.5 87 0.9 E 17 20 9 11 1024.1 1024.1 0.0

Other Formats:

Comma delimited format used in spreadsheet applications
http://www.bom.gov.au/fwo/IDV60801/IDV60801.95839.axf

JavaScript Object Notation format (JSON) in row-major order
http://www.bom.gov.au/fwo/IDV60801/IDV60801.95839.json